sat.trackr.live / text

‹ back to catalog

STARLINK-36111

NORAD 66950 · 2025-286AB

PAYLOAD ACTIVE UNKNOWN

§ Identity

Operator
Country
US
Launch date
2025-12-07
Launch site
AFWTR
Launch vehicle
Mass (kg)
RCS (m²)

Purposes: comms

External: N2YO · Heavens-Above · Gunter

§ Orbital elements

Epoch: 2026-09-20T01:16:15.633408Z

Period
93.85 min
Inclination
53.1593°
Eccentricity
0.0001673
Mean motion
15.34405489 rev/d
Perigee alt
461.5 km
Apogee alt
463.8 km
Semi-major
6,840.8 km
B*
6.1852e-4
RAAN
171.4661°
Arg perigee
88.4645°
Mean anomaly
271.6549°
Rev number
4,523

§ Raw data

STARLINK-361111 66950U 25286AB  26263.05295872  .00020582  00000+0  61852-3 0  99972 66950  53.1593 171.4661 0001673  88.4645 271.6549 15.34405489 45233

JSON: /api/v1/satellites/66950 · /tle

For live sub-satellite position, see the globe view (requires WebGL).

§ Visibility from observer

Set your observer location to see the next 7 days of passes ≥ 10°. The values pass through the URL so the page stays shareable.

No JS? Fill the form by hand. The geolocation button needs JavaScript.